Change the Weather History Date:

Thursday, October 3, 2013

  Actual Average Record
Temperature  
Mean Temperature 82 °F 81 °F  
Max Temperature 89 °F 89 °F 94 °F (1990)
Min Temperature 74 °F 73 °F 60 °F (1976)
Degree Days  
Heating Degree Days 0 0  
Month to date heating degree days 0 0  
Since 1 July heating degree days 0 0  
Cooling Degree Days 17 16  
Month to date cooling degree days 51 48  
Year to date cooling degree days 3251 3225  
Growing Degree Days 30 (Base 50)    
Moisture  
Dew Point 74 °F    
Average Humidity 84    
Maximum Humidity 100    
Minimum Humidity 68    
Precipitation  
Precipitation 1.03 in 0.21 in 4.61 in (1996)
Month to date precipitation 1.11 0.63  
Year to date precipitation 48.09 44.84  
Snow  
Snow 0.00 in - - ()
Month to date snowfall 0.0  
Since 1 July snowfall 0.0  
Since 1 September snowfall 0.0  
Snow Depth 0.00 in    
Sea Level Pressure  
Sea Level Pressure 30.00 in    
Wind  
Wind Speed 6 mph (East)    
Max Wind Speed 24 mph    
Max Gust Speed 35 mph    
Visibility 8 miles    
Events Fog , Rain , Thunderstorm    
T = Trace of Precipitation, MM = Missing Value Source: NWS Daily Summary

Daily Weather History Graph

Daily Weather History Graph

Search for Another Location

Airport or City:

Trip Planner

Search our weather history database for the weather conditions in past years. The results will help you decide how hot, cold, wet, or windy it might be!

Date:

Astronomy

Oct. 03, 2013 Rise Set
Actual Time 7:20 AM EDT 7:11 PM EDT
Civil Twilight 6:57 AM EDT 7:34 PM EDT
Nautical Twilight 6:30 AM EDT 8:00 PM EDT
Astronomical Twilight 6:03 AM EDT 8:27 PM EDT
Moon 5:57 AM EDT (10/3) 6:16 PM EDT (10/3)
Length of Visible Light 12h 36m
Length of Day
11h 50m
Waning Crescent, 2% of the Moon is Illuminated
Oct 3
Waning Crescent
Oct 4
New
Oct 11
First Quarter
Oct 18
Full
Oct 26
Last Quarter

Hourly Weather History & Observations

Time (EDT) Temp. Heat Index Dew Point Humidity Pressure Visibility Wind Dir Wind Speed Gust Speed Precip Events Conditions
12:53 AM 77.0 °F - 75.0 °F 94% 30.02 in 10.0 mi ENE 5.8 mph - N/A   Clear
1:53 AM 77.0 °F - 73.0 °F 88% 30.00 in 10.0 mi ENE 5.8 mph - N/A   Clear
2:53 AM 75.9 °F - 73.0 °F 91% 29.97 in 10.0 mi ENE 6.9 mph - N/A   Clear
3:53 AM 75.0 °F - 72.0 °F 90% 29.95 in 10.0 mi ENE 8.1 mph - N/A   Clear
4:53 AM 75.0 °F - 72.0 °F 90% 29.94 in 10.0 mi ENE 6.9 mph - N/A   Clear
5:53 AM 73.9 °F - 72.0 °F 93% 29.96 in 10.0 mi ENE 3.5 mph - N/A   Clear
6:53 AM 73.9 °F - 72.0 °F 93% 29.98 in 9.0 mi ENE 5.8 mph - N/A   Clear
7:53 AM 73.9 °F - 73.0 °F 97% 29.99 in 8.0 mi ENE 5.8 mph - N/A   Partly Cloudy
8:53 AM 78.1 °F - 73.9 °F 87% 30.02 in 10.0 mi East 8.1 mph - N/A   Clear
9:53 AM 82.0 °F 88.6 °F 75.0 °F 79% 30.04 in 10.0 mi East 9.2 mph - N/A   Partly Cloudy
10:53 AM 84.9 °F 93.3 °F 75.0 °F 72% 30.04 in 10.0 mi ESE 10.4 mph - N/A   Partly Cloudy
11:53 AM 87.1 °F 96.3 °F 75.0 °F 67% 30.04 in 10.0 mi SE 8.1 mph - N/A   Scattered Clouds
12:53 PM 88.0 °F 97.5 °F 75.0 °F 65% 30.03 in 10.0 mi North 5.8 mph - N/A   Overcast
1:53 PM 84.9 °F 93.3 °F 75.0 °F 72% 30.00 in 10.0 mi NNW 9.2 mph - N/A   Mostly Cloudy
2:53 PM 84.0 °F 91.9 °F 75.0 °F 74% 30.00 in 10.0 mi Calm Calm - N/A   Overcast
3:25 PM 80.6 °F 85.4 °F 73.4 °F 79% 30.01 in 10.0 mi East 8.1 mph - N/A   Overcast
3:32 PM 78.8 °F - 73.4 °F 83% 30.01 in 10.0 mi ESE 17.3 mph 20.7 mph N/A Thunderstorm Overcast
3:35 PM 78.8 °F - 73.4 °F 83% 30.00 in 1.8 mi East 20.7 mph 24.2 mph 0.18 in Rain , Thunderstorm Light Rain
3:38 PM 75.2 °F - 73.4 °F 94% 30.00 in 0.5 mi ESE 20.7 mph 34.5 mph 0.39 in Fog , Rain , Thunderstorm Heavy Rain
3:43 PM 75.2 °F - 73.4 °F 94% 30.01 in 0.2 mi SE 23.0 mph 34.5 mph 0.52 in Fog , Rain Heavy Rain
3:53 PM 75.0 °F - 73.9 °F 96% 30.00 in 0.2 mi South 13.8 mph - 0.93 in Fog , Rain , Thunderstorm Heavy Thunderstorms and Rain
3:55 PM 75.2 °F - 73.4 °F 94% 30.00 in 0.5 mi South 12.7 mph - 0.03 in Fog , Rain , Thunderstorm Heavy Thunderstorms and Rain
3:57 PM 75.2 °F - 73.4 °F 94% 30.00 in 1.0 mi South 13.8 mph - 0.04 in Rain , Thunderstorm Heavy Thunderstorms and Rain
4:10 PM 75.2 °F - 71.6 °F 89% 30.00 in 7.0 mi SSE 8.1 mph - 0.07 in Rain , Thunderstorm Light Thunderstorms and Rain
4:17 PM 75.2 °F - 73.4 °F 94% 30.00 in 6.0 mi East 5.8 mph - 0.07 in Rain Light Rain
4:53 PM 75.9 °F - 73.9 °F 94% 29.99 in 6.0 mi East 4.6 mph - 0.08 in Rain Light Rain
5:53 PM 78.1 °F - 75.9 °F 93% 30.00 in 10.0 mi ENE 8.1 mph - 0.02 in   Mostly Cloudy
6:53 PM 78.1 °F - 73.9 °F 87% 30.00 in 10.0 mi East 3.5 mph - N/A   Scattered Clouds
7:53 PM 77.0 °F - 75.0 °F 94% 30.01 in 10.0 mi East 3.5 mph - N/A   Partly Cloudy
8:53 PM 77.0 °F - 75.0 °F 94% 30.01 in 10.0 mi Calm Calm - N/A   Clear
9:53 PM 75.9 °F - 75.0 °F 97% 30.02 in 10.0 mi ENE 3.5 mph - N/A   Clear
10:53 PM 75.9 °F - 75.0 °F 97% 30.04 in 10.0 mi East 4.6 mph - N/A   Clear